This is the latest recevied weather packets stored in our database for station/object HS2LXA-13. If no packets are shown the sender has not sent any weather packets the latest 10 day(s).
| Time | Temp. | Humidity | Pressure | Rain* | Wind** | Luminosity | Snow |
|---|---|---|---|---|---|---|---|
| 1777944100 | 27.22° C | 88% | 1011.5 hPa | 0.51 mm | - | 0 W/m² | - |
| 1777943492 | 26.67° C | 89% | 1011.3 hPa | 0.51 mm | - | 0 W/m² | - |
| 1777942890 | 26.67° C | 89% | 1011.2 hPa | 0.51 mm | - | 0 W/m² | - |
| 1777942284 | 26.11° C | 90% | 1011 hPa | 0.51 mm | - | 0 W/m² | - |
| 1777941681 | 26.11° C | 90% | 1010.7 hPa | 0.51 mm | - | 0 W/m² | - |
| 1777941080 | 26.11° C | 89% | 1010.7 hPa | 0.51 mm | - | 0 W/m² | - |
| 1777940480 | 26.11° C | 89% | 1010.6 hPa | 0.51 mm | - | 0 W/m² | - |
| 1777939879 | 25.56° C | 88% | 1010.5 hPa | 0.51 mm | - | 0 W/m² | - |
| 1777939279 | 25.56° C | 89% | 1010.5 hPa | 0.51 mm | - | 0 W/m² | - |
| 1777938678 | 25.56° C | 90% | 1010.4 hPa | 0.51 mm | - | 0 W/m² | - |
| 1777938076 | 25.56° C | 88% | 1010.4 hPa | 0.51 mm | - | 0 W/m² | - |
| 1777937475 | 25.56° C | 87% | 1010.4 hPa | 0.51 mm | - | 0 W/m² | - |
| 1777936873 | 25.56° C | 88% | 1010.4 hPa | 0.51 mm | - | 0 W/m² | - |
| 1777936271 | 25.56° C | 86% | 1010.2 hPa | 0.51 mm | - | 0 W/m² | - |
| 1777935668 | 25° C | 86% | 1010.1 hPa | 0.51 mm | - | 0 W/m² | - |
| 1777935066 | 25.56° C | 86% | 1010.1 hPa | 0.51 mm | - | 0 W/m² | - |
| 1777934460 | 25° C | 86% | 1010 hPa | 0.51 mm | - | 0 W/m² | - |
| 1777933858 | 25.56° C | 86% | 1009.9 hPa | 0.51 mm | - | 0 W/m² | - |
| 1777933256 | 25.56° C | 86% | 1009.8 hPa | 0.51 mm | - | 0 W/m² | - |
| 1777932652 | 25° C | 86% | 1009.8 hPa | 0.51 mm | - | 0 W/m² | - |
| 1777932048 | 25° C | 86% | 1009.7 hPa | 0.51 mm | - | 0 W/m² | - |
| 1777931445 | 25° C | 86% | 1009.8 hPa | 0.51 mm | - | 0 W/m² | - |
| 1777930843 | 25.56° C | 86% | 1009.8 hPa | 0.51 mm | - | 0 W/m² | - |
| 1777930246 | 25.56° C | 86% | 1009.7 hPa | 0.51 mm | - | 0 W/m² | - |
| 1777929640 | 25° C | 87% | 1009.8 hPa | 0.51 mm | - | 0 W/m² | - |
* Rain latest hour (hover to see other rain measurements)
** Current wind speed in m/s (hover to see current wind gust speed)